Home > Weather > Jackson > Past weeks

Flag for U.S.A. Weather for the Past 2 Weeks in Jackson, Mississippi, U.S.A.

Now
32 °F

Clear.


Feels Like: 32 °F
Forecast: 29 / 59 °F
Wind: No wind

Location: Hawkins Field

Current Time: Feb 7, 2016 at 5:08:09 AM

Latest Report: Feb 7, 2016 at 3:53 AM


Visibility: 10 mi

Pressure: 30.27 "Hg

Humidity: 75%

Dew point: 25 °F

Location of JacksonLocation

Historic Weather in Jackson — Graph

°F

Jackson Temperature Yesterday

Maximum temperature yesterday: 56 °F (at 3:53 PM)
Minimum temperature yesterday: 35 °F (at 12:53 AM)
Average temperature yesterday: 44 °F

High & Low Weather Summary for the Past Weeks

 TemperatureHumidityPressure
High75 °F (Feb 1, 2:53 PM)100% (Feb 3, 2:53 AM)30.51 "Hg (Feb 3, 2:53 AM)
Low23 °F (Jan 24, 3:53 AM)23% (Feb 5, 3:53 PM)29.65 "Hg (Feb 2, 3:53 PM)
Average50 °F68%30.09 "Hg
* Reported Jan 23 3:53 AM — Feb 7 3:53 AM, Jackson, Weather by CustomWeather, © 2016

Note: Actual official high and low records may vary slightly from our data, if they occured in-between our weather recording intervals... More about our weather records

Advertising

Jackson Weather History for the Previous 24 Hours

 ConditionsComfort  
Time TempWeatherWind HumidityBarometerVisibility
3:53 AM
Sun, Feb 7
32 °FClear.No wind75%30.27 "Hg10 mi
2:53 AM33 °FClear.3 mph75%30.27 "Hg10 mi
1:53 AM36 °FClear.No wind67%30.27 "Hg10 mi
12:53 AM37 °FClear.No wind62%30.27 "Hg10 mi
11:53 PM
Sat, Feb 6
36 °FClear.No wind67%30.29 "Hg10 mi
10:53 PM38 °FClear.No wind63%30.30 "Hg10 mi
9:53 PM41 °FClear.3 mph49%30.31 "Hg10 mi
8:53 PM41 °FClear.5 mph49%30.30 "Hg10 mi
7:53 PM45 °FClear.3 mph38%30.29 "Hg10 mi
6:53 PM48 °FClear.3 mph32%30.29 "Hg10 mi
5:53 PM51 °FClear.3 mph25%30.27 "Hg10 mi
4:53 PM54 °FSunny.7 mph23%30.26 "Hg10 mi
3:53 PM56 °FSunny.7 mph23%30.26 "Hg10 mi
2:53 PM55 °FSunny.No wind23%30.26 "Hg10 mi
1:53 PM55 °FSunny.9 mph24%30.27 "Hg10 mi
12:53 PM55 °FSunny.6 mph23%30.29 "Hg10 mi
11:53 AM52 °FSunny.6 mph28%30.33 "Hg10 mi
10:53 AM51 °FSunny.5 mph31%30.34 "Hg10 mi
9:53 AM49 °FSunny.7 mph35%30.35 "Hg10 mi
8:53 AM44 °FSunny.6 mph53%30.36 "Hg10 mi
7:53 AM38 °FSunny.3 mph83%30.36 "Hg10 mi
6:53 AM37 °FSunny.No wind79%30.35 "Hg10 mi
5:53 AM36 °FClear.No wind82%30.34 "Hg10 mi
Weather by CustomWeather, © 2016

See weather overviewHow to use our weather pages